Home > Weather > Ede > Past weeks

Flag for Netherlands Weather for the Past 2 Weeks in Ede, Netherlands

Now
48 °F

Broken clouds.


Feels Like: 41 °F
Forecast: 44 / 49 °F
Wind: 20 mph from Southwest

Location: Deelen

Current Time: Feb 7, 2016 at 12:55:57 PM

Latest Report: Feb 7, 2016 at 12:25 PM


Visibility: N/A

Pressure: 29.47 "Hg

Humidity: 76%

Dew point: 41 °F

Location of EdeLocation

Historic Weather in Ede — Graph

°F

Ede Temperature Yesterday

Maximum temperature yesterday: 50 °F (at 12:25 PM)
Minimum temperature yesterday: 48 °F (at 12:55 AM)
Average temperature yesterday: 49 °F

High & Low Weather Summary for the Past Weeks

 TemperatureHumidityPressure
High57 °F (Jan 25, 2:25 PM)100% (Jan 23, 11:25 AM)30.51 "Hg (Jan 23, 11:25 AM)
Low34 °F (Feb 3, 10:55 PM)58% (Jan 25, 7:25 PM)29.36 "Hg (Feb 7, 4:55 AM)
Average46 °F88%30.01 "Hg
* Reported Jan 23 11:25 AM — Feb 7 11:25 AM, Ede, Weather by CustomWeather, © 2016

Note: Actual official high and low records may vary slightly from our data, if they occured in-between our weather recording intervals... More about our weather records

Advertising

Ede Weather History for the Previous 24 Hours

 ConditionsComfort  
Time TempWeatherWind HumidityBarometerVisibility
11:25 AM
Sun, Feb 7
46 °FCloudy.16 mph82%29.47 "HgN/A
10:55 AM46 °FPartly sunny.16 mph87%29.45 "HgN/A
10:25 AM46 °FMore clouds than sun.14 mph87%29.45 "HgN/A
9:55 AM45 °FPartly sunny.14 mph93%29.45 "HgN/A
9:25 AM45 °FOvercast.13 mph93%29.42 "HgN/A
8:55 AM45 °FDrizzle. Partly sunny.12 mph93%29.42 "HgN/A
8:25 AM45 °FBroken clouds.12 mph93%29.39 "HgN/A
7:55 AM46 °FLight rain. Passing clouds.17 mph93%29.39 "HgN/A
7:25 AM48 °FSprinkles. Mostly cloudy.17 mph87%29.36 "HgN/A
6:55 AM52 °FOvercast.22 mph72%29.36 "HgN/A
6:25 AM52 °FPassing clouds.20 mph67%29.36 "HgN/A
5:55 AM52 °FOvercast.17 mph67%29.36 "HgN/A
5:25 AM52 °FOvercast.16 mph67%29.36 "HgN/A
4:55 AM50 °FPassing clouds.16 mph71%29.36 "HgN/A
4:25 AM48 °FOvercast.14 mph76%29.39 "HgN/A
3:55 AM48 °FMostly cloudy.12 mph76%29.39 "HgN/A
3:25 AM48 °FPassing clouds.15 mph76%29.39 "HgN/A
2:55 AM48 °FOvercast.16 mph76%29.39 "HgN/A
2:25 AM48 °FMostly cloudy.16 mph76%29.42 "HgN/A
1:55 AM48 °FCool.15 mph76%29.42 "HgN/A
1:25 AM48 °FPassing clouds.17 mph76%29.45 "HgN/A
12:55 AM48 °FPassing clouds.17 mph76%29.45 "HgN/A
12:25 AM48 °FPassing clouds.17 mph76%29.47 "HgN/A
11:55 PM
Sat, Feb 6
48 °FPassing clouds.15 mph76%29.47 "HgN/A
11:25 PM48 °FPassing clouds.16 mph76%29.47 "HgN/A
10:55 PM48 °FPassing clouds.16 mph76%29.50 "HgN/A
9:55 PM48 °FCool.15 mph71%29.53 "HgN/A
9:25 PM48 °FPassing clouds.14 mph71%29.53 "HgN/A
8:55 PM48 °FPassing clouds.14 mph76%29.56 "HgN/A
8:25 PM48 °FPassing clouds.14 mph76%29.56 "HgN/A
7:55 PM48 °FOvercast.12 mph76%29.59 "HgN/A
7:25 PM48 °FPassing clouds.9 mph76%29.59 "HgN/A
6:55 PM48 °FOvercast.13 mph76%29.62 "HgN/A
6:25 PM48 °FOvercast.13 mph76%29.62 "HgN/A
5:55 PM48 °FOvercast.15 mph76%29.62 "HgN/A
5:25 PM50 °FScattered clouds.15 mph76%29.62 "HgN/A
4:55 PM50 °FPartly sunny.12 mph76%29.65 "HgN/A
4:25 PM50 °FMostly cloudy.15 mph76%29.65 "HgN/A
3:55 PM50 °FMore clouds than sun.16 mph76%29.68 "HgN/A
3:25 PM50 °FMostly cloudy.15 mph76%29.68 "HgN/A
2:55 PM50 °FCloudy.16 mph76%29.71 "HgN/A
2:25 PM50 °FBroken clouds.14 mph76%29.74 "HgN/A
1:55 PM50 °FMore clouds than sun.15 mph76%29.74 "HgN/A
1:25 PM50 °FMostly cloudy.17 mph76%29.74 "HgN/A
12:55 PM50 °FBroken clouds.17 mph76%29.77 "HgN/A
12:25 PM50 °FMore clouds than sun.16 mph76%29.77 "HgN/A
Weather by CustomWeather, © 2016

See weather overviewHow to use our weather pages